owner,sensor,date,latitude,longitude,vertical_datum,sea_water_temperature,qcFlag 
Scripps,ioos:station:wmo:42099:1,2017-06-01T01:30:00Z,27.3400,-84.2750,0.0,27.1,2 
Scripps,ioos:station:wmo:42099:1,2017-06-01T02:30:00Z,27.3400,-84.2750,0.0,27.0,2 
Scripps,ioos:station:wmo:42099:1,2017-06-01T03:30:00Z,27.3400,-84.2750,0.0,27.0,2 
Scripps,ioos:station:wmo:42099:1,2017-06-01T05:00:00Z,27.3400,-84.2750,0.0,27.15,2 
Scripps,ioos:station:wmo:42099:1,2017-06-01T06:00:00Z,27.3400,-84.2750,0.0,27.1,2 
Scripps,ioos:station:wmo:42099:1,2017-06-01T07:30:00Z,27.3400,-84.2750,0.0,27.0,2 
Scripps,ioos:station:wmo:42099:1,2017-06-01T13:00:00Z,27.3400,-84.2750,0.0,26.85,2 
Scripps,ioos:station:wmo:42099:1,2017-06-01T14:30:00Z,27.3400,-84.2750,0.0,27.1,2 
Scripps,ioos:station:wmo:42099:1,2017-06-01T17:00:00Z,27.3400,-84.2750,0.0,27.35,2 
Scripps,ioos:station:wmo:42099:1,2017-06-01T21:00:00Z,27.3400,-84.2750,0.0,27.65,2 
Scripps,ioos:station:wmo:42099:1,2017-06-02T00:30:00Z,27.3400,-84.2750,0.0,27.35,2 
Scripps,ioos:station:wmo:42099:1,2017-06-02T01:00:00Z,27.3400,-84.2750,0.0,27.35,2 
Scripps,ioos:station:wmo:42099:1,2017-06-02T02:30:00Z,27.3400,-84.2750,0.0,27.25,2 
Scripps,ioos:station:wmo:42099:1,2017-06-02T03:30:00Z,27.3400,-84.2750,0.0,27.15,2 
Scripps,ioos:station:wmo:42099:1,2017-06-02T04:00:00Z,27.3400,-84.2750,0.0,27.2,2 
Scripps,ioos:station:wmo:42099:1,2017-06-02T06:00:00Z,27.3400,-84.2750,0.0,27.2,2 
Scripps,ioos:station:wmo:42099:1,2017-06-02T07:00:00Z,27.3400,-84.2750,0.0,27.1,2 
Scripps,ioos:station:wmo:42099:1,2017-06-02T11:30:00Z,27.3400,-84.2750,0.0,27.15,2 
Scripps,ioos:station:wmo:42099:1,2017-06-02T16:30:00Z,27.3400,-84.2750,0.0,27.1,2 
Scripps,ioos:station:wmo:42099:1,2017-06-02T17:00:00Z,27.3400,-84.2750,0.0,27.1,2 
Scripps,ioos:station:wmo:42099:1,2017-06-02T20:30:00Z,27.3400,-84.2750,0.0,27.25,2 
Scripps,ioos:station:wmo:42099:1,2017-06-02T22:30:00Z,27.3400,-84.2750,0.0,27.0,2 
Scripps,ioos:station:wmo:42099:1,2017-06-02T23:00:00Z,27.3400,-84.2750,0.0,26.95,2 
Scripps,ioos:station:wmo:42099:1,2017-06-03T00:30:00Z,27.3400,-84.2750,0.0,27.35,2 
Scripps,ioos:station:wmo:42099:1,2017-06-03T01:30:00Z,27.3400,-84.2750,0.0,27.3,2 
Scripps,ioos:station:wmo:42099:1,2017-06-03T02:00:00Z,27.3400,-84.2750,0.0,27.25,2 
Scripps,ioos:station:wmo:42099:1,2017-06-03T04:00:00Z,27.3400,-84.2750,0.0,27.15,2 
Scripps,ioos:station:wmo:42099:1,2017-06-03T06:30:00Z,27.3400,-84.2750,0.0,27.05,2 
Scripps,ioos:station:wmo:42099:1,2017-06-03T07:00:00Z,27.3400,-84.2750,0.0,27.05,2 
Scripps,ioos:station:wmo:42099:1,2017-06-03T08:30:00Z,27.3400,-84.2750,0.0,26.85,2 
Scripps,ioos:station:wmo:42099:1,2017-06-03T10:00:00Z,27.3400,-84.2750,0.0,26.7,2 
Scripps,ioos:station:wmo:42099:1,2017-06-03T11:00:00Z,27.3400,-84.2750,0.0,26.7,2 
Scripps,ioos:station:wmo:42099:1,2017-06-03T13:30:00Z,27.3400,-84.2750,0.0,26.65,2 
Scripps,ioos:station:wmo:42099:1,2017-06-03T14:30:00Z,27.3400,-84.2750,0.0,26.75,2 
Scripps,ioos:station:wmo:42099:1,2017-06-03T15:00:00Z,27.3400,-84.2750,0.0,26.8,2 
Scripps,ioos:station:wmo:42099:1,2017-06-03T16:30:00Z,27.3400,-84.2750,0.0,27.1,2 
Scripps,ioos:station:wmo:42099:1,2017-06-03T17:00:00Z,27.3400,-84.2750,0.0,27.15,2 
Scripps,ioos:station:wmo:42099:1,2017-06-03T20:00:00Z,27.3400,-84.2750,0.0,27.25,2 
Scripps,ioos:station:wmo:42099:1,2017-06-03T22:30:00Z,27.3400,-84.2750,0.0,27.05,2 
Scripps,ioos:station:wmo:42099:1,2017-06-04T01:30:00Z,27.3400,-84.2750,0.0,26.9,2 
Scripps,ioos:station:wmo:42099:1,2017-06-04T02:00:00Z,27.3400,-84.2750,0.0,26.8,2 
Scripps,ioos:station:wmo:42099:1,2017-06-04T03:30:00Z,27.3400,-84.2750,0.0,26.7,2 
Scripps,ioos:station:wmo:42099:1,2017-06-04T05:00:00Z,27.3400,-84.2750,0.0,27.0,2 
Scripps,ioos:station:wmo:42099:1,2017-06-04T08:30:00Z,27.3400,-84.2750,0.0,27.0,2 
Scripps,ioos:station:wmo:42099:1,2017-06-04T10:00:00Z,27.3400,-84.2750,0.0,26.75,2 
Scripps,ioos:station:wmo:42099:1,2017-06-04T11:00:00Z,27.3400,-84.2750,0.0,26.55,2 
Scripps,ioos:station:wmo:42099:1,2017-06-04T14:30:00Z,27.3400,-84.2750,0.0,26.6,2 
Scripps,ioos:station:wmo:42099:1,2017-06-04T16:30:00Z,27.3400,-84.2750,0.0,26.75,2 
Scripps,ioos:station:wmo:42099:1,2017-06-04T17:00:00Z,27.3400,-84.2750,0.0,26.75,2 
Scripps,ioos:station:wmo:42099:1,2017-06-04T19:30:00Z,27.3400,-84.2750,0.0,27.0,2 
Scripps,ioos:station:wmo:42099:1,2017-06-04T20:00:00Z,27.3400,-84.2750,0.0,27.05,2 
Scripps,ioos:station:wmo:42099:1,2017-06-04T21:30:00Z,27.3400,-84.2750,0.0,27.1,2 
Scripps,ioos:station:wmo:42099:1,2017-06-04T23:30:00Z,27.3400,-84.2750,0.0,27.0,2 
Scripps,ioos:station:wmo:42099:1,2017-06-05T04:00:00Z,27.3400,-84.2750,0.0,26.7,2 
Scripps,ioos:station:wmo:42099:1,2017-06-05T05:00:00Z,27.3400,-84.2750,0.0,26.4,2 
Scripps,ioos:station:wmo:42099:1,2017-06-05T09:30:00Z,27.3400,-84.2750,0.0,26.6,2 
Scripps,ioos:station:wmo:42099:1,2017-06-05T10:00:00Z,27.3400,-84.2750,0.0,26.6,2 
Scripps,ioos:station:wmo:42099:1,2017-06-05T12:30:00Z,27.3400,-84.2750,0.0,26.55,2 
Scripps,ioos:station:wmo:42099:1,2017-06-05T13:00:00Z,27.3400,-84.2750,0.0,26.6,2 
Scripps,ioos:station:wmo:42099:1,2017-06-05T14:30:00Z,27.3400,-84.2750,0.0,26.65,2 
Scripps,ioos:station:wmo:42099:1,2017-06-05T15:30:00Z,27.3400,-84.2750,0.0,26.7,2 
Scripps,ioos:station:wmo:42099:1,2017-06-05T16:30:00Z,27.3400,-84.2750,0.0,26.7,2 
Scripps,ioos:station:wmo:42099:1,2017-06-05T17:00:00Z,27.3400,-84.2750,0.0,26.65,2 
Scripps,ioos:station:wmo:42099:1,2017-06-05T18:30:00Z,27.3400,-84.2750,0.0,26.7,2 
Scripps,ioos:station:wmo:42099:1,2017-06-05T19:30:00Z,27.3400,-84.2750,0.0,26.7,2 
Scripps,ioos:station:wmo:42099:1,2017-06-05T20:30:00Z,27.3400,-84.2750,0.0,26.75,2 
Scripps,ioos:station:wmo:42099:1,2017-06-05T21:30:00Z,27.3400,-84.2750,0.0,26.75,2 
Scripps,ioos:station:wmo:42099:1,2017-06-05T22:30:00Z,27.3400,-84.2750,0.0,26.75,2 
Scripps,ioos:station:wmo:42099:1,2017-06-06T00:30:00Z,27.3400,-84.2750,0.0,26.7,2 
Scripps,ioos:station:wmo:42099:1,2017-06-06T02:30:00Z,27.3400,-84.2750,0.0,26.5,2 
Scripps,ioos:station:wmo:42099:1,2017-06-06T06:30:00Z,27.3400,-84.2750,0.0,26.25,2 
Scripps,ioos:station:wmo:42099:1,2017-06-06T08:30:00Z,27.3400,-84.2750,0.0,26.2,2 
Scripps,ioos:station:wmo:42099:1,2017-06-06T09:30:00Z,27.3400,-84.2750,0.0,26.2,2 
Scripps,ioos:station:wmo:42099:1,2017-06-06T10:30:00Z,27.3400,-84.2750,0.0,26.15,2 
Scripps,ioos:station:wmo:42099:1,2017-06-06T11:30:00Z,27.3400,-84.2750,0.0,26.1,2 
Scripps,ioos:station:wmo:42099:1,2017-06-06T12:30:00Z,27.3400,-84.2750,0.0,26.05,2 
Scripps,ioos:station:wmo:42099:1,2017-06-06T13:00:00Z,27.3400,-84.2750,0.0,26.05,2 
Scripps,ioos:station:wmo:42099:1,2017-06-06T14:30:00Z,27.3400,-84.2750,0.0,26.05,2 
Scripps,ioos:station:wmo:42099:1,2017-06-06T15:30:00Z,27.3400,-84.2750,0.0,26.1,2 
Scripps,ioos:station:wmo:42099:1,2017-06-06T16:30:00Z,27.3400,-84.2750,0.0,26.2,2 
Scripps,ioos:station:wmo:42099:1,2017-06-06T17:30:00Z,27.3400,-84.2750,0.0,26.25,2 
Scripps,ioos:station:wmo:42099:1,2017-06-06T18:30:00Z,27.3400,-84.2750,0.0,26.35,2 
Scripps,ioos:station:wmo:42099:1,2017-06-06T19:30:00Z,27.3400,-84.2750,0.0,26.35,2 
Scripps,ioos:station:wmo:42099:1,2017-06-06T20:30:00Z,27.3400,-84.2750,0.0,26.4,2 
Scripps,ioos:station:wmo:42099:1,2017-06-06T21:00:00Z,27.3400,-84.2750,0.0,26.45,2 
Scripps,ioos:station:wmo:42099:1,2017-06-06T22:30:00Z,27.3400,-84.2750,0.0,26.5,2 
Scripps,ioos:station:wmo:42099:1,2017-06-07T00:30:00Z,27.3400,-84.2750,0.0,26.5,2 
Scripps,ioos:station:wmo:42099:1,2017-06-07T01:00:00Z,27.3400,-84.2750,0.0,26.5,2 
Scripps,ioos:station:wmo:42099:1,2017-06-07T03:30:00Z,27.3400,-84.2750,0.0,26.5,2 
Scripps,ioos:station:wmo:42099:1,2017-06-07T04:30:00Z,27.3400,-84.2750,0.0,26.45,2 
Scripps,ioos:station:wmo:42099:1,2017-06-07T05:30:00Z,27.3400,-84.2750,0.0,26.45,2 
Scripps,ioos:station:wmo:42099:1,2017-06-07T06:30:00Z,27.3400,-84.2750,0.0,26.45,2 
Scripps,ioos:station:wmo:42099:1,2017-06-07T07:30:00Z,27.3400,-84.2750,0.0,26.45,2 
Scripps,ioos:station:wmo:42099:1,2017-06-07T08:30:00Z,27.3400,-84.2750,0.0,26.45,2 
Scripps,ioos:station:wmo:42099:1,2017-06-07T09:00:00Z,27.3400,-84.2750,0.0,26.45,2 
Scripps,ioos:station:wmo:42099:1,2017-06-07T10:00:00Z,27.3400,-84.2750,0.0,26.45,2 
Scripps,ioos:station:wmo:42099:1,2017-06-07T11:30:00Z,27.3400,-84.2750,0.0,26.4,2 
Scripps,ioos:station:wmo:42099:1,2017-06-07T12:30:00Z,27.3400,-84.2750,0.0,26.4,2 
Scripps,ioos:station:wmo:42099:1,2017-06-07T13:30:00Z,27.3400,-84.2750,0.0,26.4,2 
Scripps,ioos:station:wmo:42099:1,2017-06-07T14:30:00Z,27.3400,-84.2750,0.0,26.4,2 
Scripps,ioos:station:wmo:42099:1,2017-06-07T15:30:00Z,27.3400,-84.2750,0.0,26.4,2 
Scripps,ioos:station:wmo:42099:1,2017-06-07T17:30:00Z,27.3400,-84.2750,0.0,26.5,2 
Scripps,ioos:station:wmo:42099:1,2017-06-07T18:30:00Z,27.3400,-84.2750,0.0,26.55,2 
Scripps,ioos:station:wmo:42099:1,2017-06-07T19:30:00Z,27.3400,-84.2750,0.0,26.65,2 
Scripps,ioos:station:wmo:42099:1,2017-06-07T20:00:00Z,27.3400,-84.2750,0.0,26.65,2 
Scripps,ioos:station:wmo:42099:1,2017-06-07T22:00:00Z,27.3400,-84.2750,0.0,26.7,2 
Scripps,ioos:station:wmo:42099:1,2017-06-08T00:30:00Z,27.3400,-84.2750,0.0,26.6,2 
Scripps,ioos:station:wmo:42099:1,2017-06-08T02:00:00Z,27.3400,-84.2750,0.0,26.6,2 
Scripps,ioos:station:wmo:42099:1,2017-06-08T03:30:00Z,27.3400,-84.2750,0.0,26.6,2 
Scripps,ioos:station:wmo:42099:1,2017-06-08T04:30:00Z,27.3400,-84.2750,0.0,26.55,2 
Scripps,ioos:station:wmo:42099:1,2017-06-08T05:30:00Z,27.3400,-84.2750,0.0,26.55,2 
Scripps,ioos:station:wmo:42099:1,2017-06-08T06:30:00Z,27.3400,-84.2750,0.0,26.55,2 
Scripps,ioos:station:wmo:42099:1,2017-06-08T07:30:00Z,27.3400,-84.2750,0.0,26.6,2 
Scripps,ioos:station:wmo:42099:1,2017-06-08T08:30:00Z,27.3400,-84.2750,0.0,26.6,2 
Scripps,ioos:station:wmo:42099:1,2017-06-08T09:00:00Z,27.3400,-84.2750,0.0,26.6,2 
Scripps,ioos:station:wmo:42099:1,2017-06-08T10:00:00Z,27.3400,-84.2750,0.0,26.55,2 
Scripps,ioos:station:wmo:42099:1,2017-06-08T11:30:00Z,27.3400,-84.2750,0.0,26.55,2 
Scripps,ioos:station:wmo:42099:1,2017-06-08T13:00:00Z,27.3400,-84.2750,0.0,26.55,2 
Scripps,ioos:station:wmo:42099:1,2017-06-08T14:00:00Z,27.3400,-84.2750,0.0,26.5,2 
Scripps,ioos:station:wmo:42099:1,2017-06-08T15:00:00Z,27.3400,-84.2750,0.0,26.6,2 
Scripps,ioos:station:wmo:42099:1,2017-06-08T16:30:00Z,27.3400,-84.2750,0.0,26.65,2 
Scripps,ioos:station:wmo:42099:1,2017-06-08T17:30:00Z,27.3400,-84.2750,0.0,26.7,2 
Scripps,ioos:station:wmo:42099:1,2017-06-08T18:30:00Z,27.3400,-84.2750,0.0,26.75,2 
Scripps,ioos:station:wmo:42099:1,2017-06-08T19:30:00Z,27.3400,-84.2750,0.0,26.7,2 
Scripps,ioos:station:wmo:42099:1,2017-06-08T21:30:00Z,27.3400,-84.2750,0.0,26.75,2 
Scripps,ioos:station:wmo:42099:1,2017-06-08T22:30:00Z,27.3400,-84.2750,0.0,26.8,2 
Scripps,ioos:station:wmo:42099:1,2017-06-08T23:00:00Z,27.3400,-84.2750,0.0,26.8,2 
Scripps,ioos:station:wmo:42099:1,2017-06-09T01:30:00Z,27.3400,-84.2750,0.0,26.75,2 
Scripps,ioos:station:wmo:42099:1,2017-06-09T07:30:00Z,27.3400,-84.2750,0.0,26.7,2 
Scripps,ioos:station:wmo:42099:1,2017-06-09T08:30:00Z,27.3400,-84.2750,0.0,26.65,2 
Scripps,ioos:station:wmo:42099:1,2017-06-09T12:30:00Z,27.3400,-84.2750,0.0,26.65,2 
Scripps,ioos:station:wmo:42099:1,2017-06-09T13:30:00Z,27.3400,-84.2750,0.0,26.75,2 
Scripps,ioos:station:wmo:42099:1,2017-06-09T15:30:00Z,27.3400,-84.2750,0.0,27.95,2 
Scripps,ioos:station:wmo:42099:1,2017-06-09T16:30:00Z,27.3400,-84.2750,0.0,28.1,2 
Scripps,ioos:station:wmo:42099:1,2017-06-09T17:30:00Z,27.3400,-84.2750,0.0,28.65,2 
Scripps,ioos:station:wmo:42099:1,2017-06-09T18:00:00Z,27.3400,-84.2750,0.0,29.7,2 
Scripps,ioos:station:wmo:42099:1,2017-06-09T19:30:00Z,27.3400,-84.2750,0.0,30.8,2 
Scripps,ioos:station:wmo:42099:1,2017-06-09T20:30:00Z,27.3400,-84.2750,0.0,29.7,2 
Scripps,ioos:station:wmo:42099:1,2017-06-09T21:30:00Z,27.3400,-84.2750,0.0,30.2,2 
Scripps,ioos:station:wmo:42099:1,2017-06-09T22:30:00Z,27.3400,-84.2750,0.0,29.65,2 
Scripps,ioos:station:wmo:42099:1,2017-06-09T23:00:00Z,27.3400,-84.2750,0.0,30.1,2 
Scripps,ioos:station:wmo:42099:1,2017-06-10T01:30:00Z,27.3400,-84.2750,0.0,28.9,2 
Scripps,ioos:station:wmo:42099:1,2017-06-10T06:00:00Z,27.3400,-84.2750,0.0,26.8,2 
Scripps,ioos:station:wmo:42099:1,2017-06-10T07:00:00Z,27.3400,-84.2750,0.0,26.75,2 
Scripps,ioos:station:wmo:42099:1,2017-06-10T08:00:00Z,27.3400,-84.2750,0.0,26.8,2 
Scripps,ioos:station:wmo:42099:1,2017-06-10T10:30:00Z,27.3400,-84.2750,0.0,26.7,2 
Scripps,ioos:station:wmo:42099:1,2017-06-10T11:30:00Z,27.3400,-84.2750,0.0,26.65,2 
Scripps,ioos:station:wmo:42099:1,2017-06-10T12:30:00Z,27.3400,-84.2750,0.0,26.7,2 
Scripps,ioos:station:wmo:42099:1,2017-06-10T13:30:00Z,27.3400,-84.2750,0.0,26.7,2 
Scripps,ioos:station:wmo:42099:1,2017-06-10T15:00:00Z,27.3400,-84.2750,0.0,26.95,2 
Scripps,ioos:station:wmo:42099:1,2017-06-10T16:30:00Z,27.3400,-84.2750,0.0,27.1,2 
Scripps,ioos:station:wmo:42099:1,2017-06-10T19:30:00Z,27.3400,-84.2750,0.0,27.1,2 
Scripps,ioos:station:wmo:42099:1,2017-06-10T21:00:00Z,27.3400,-84.2750,0.0,27.0,2 
Scripps,ioos:station:wmo:42099:1,2017-06-11T00:00:00Z,27.3400,-84.2750,0.0,26.95,2 
Scripps,ioos:station:wmo:42099:1,2017-06-11T01:30:00Z,27.3400,-84.2750,0.0,26.95,2 
Scripps,ioos:station:wmo:42099:1,2017-06-11T03:30:00Z,27.3400,-84.2750,0.0,26.9,2 
Scripps,ioos:station:wmo:42099:1,2017-06-11T04:30:00Z,27.3400,-84.2750,0.0,26.8,2 
Scripps,ioos:station:wmo:42099:1,2017-06-11T05:30:00Z,27.3400,-84.2750,0.0,26.9,2 
Scripps,ioos:station:wmo:42099:1,2017-06-11T06:30:00Z,27.3400,-84.2750,0.0,26.9,2 
Scripps,ioos:station:wmo:42099:1,2017-06-11T07:00:00Z,27.3400,-84.2750,0.0,26.9,2 
Scripps,ioos:station:wmo:42099:1,2017-06-11T08:30:00Z,27.3400,-84.2750,0.0,26.85,2 
Scripps,ioos:station:wmo:42099:1,2017-06-11T09:30:00Z,27.3400,-84.2750,0.0,26.85,2 
Scripps,ioos:station:wmo:42099:1,2017-06-11T10:30:00Z,27.3400,-84.2750,0.0,26.85,2 
Scripps,ioos:station:wmo:42099:1,2017-06-11T11:30:00Z,27.3400,-84.2750,0.0,26.8,2 
Scripps,ioos:station:wmo:42099:1,2017-06-11T12:30:00Z,27.3400,-84.2750,0.0,26.8,2 
Scripps,ioos:station:wmo:42099:1,2017-06-11T13:30:00Z,27.3400,-84.2750,0.0,26.8,2 
Scripps,ioos:station:wmo:42099:1,2017-06-11T14:30:00Z,27.3400,-84.2750,0.0,26.8,2 
Scripps,ioos:station:wmo:42099:1,2017-06-11T15:30:00Z,27.3400,-84.2750,0.0,26.8,2 
Scripps,ioos:station:wmo:42099:1,2017-06-11T16:00:00Z,27.3400,-84.2750,0.0,26.75,2 
Scripps,ioos:station:wmo:42099:1,2017-06-11T18:00:00Z,27.3400,-84.2750,0.0,26.75,2 
Scripps,ioos:station:wmo:42099:1,2017-06-11T19:30:00Z,27.3400,-84.2750,0.0,26.7,2 
Scripps,ioos:station:wmo:42099:1,2017-06-11T20:30:00Z,27.3400,-84.2750,0.0,26.8,2 
Scripps,ioos:station:wmo:42099:1,2017-06-11T21:30:00Z,27.3400,-84.2750,0.0,26.8,2 
Scripps,ioos:station:wmo:42099:1,2017-06-11T22:30:00Z,27.3400,-84.2750,0.0,26.7,2 
Scripps,ioos:station:wmo:42099:1,2017-06-11T23:30:00Z,27.3400,-84.2750,0.0,26.7,2 
Scripps,ioos:station:wmo:42099:1,2017-06-12T00:30:00Z,27.3400,-84.2750,0.0,26.7,2 
Scripps,ioos:station:wmo:42099:1,2017-06-12T04:30:00Z,27.3400,-84.2750,0.0,26.75,2 
Scripps,ioos:station:wmo:42099:1,2017-06-12T06:00:00Z,27.3400,-84.2750,0.0,26.75,2 
Scripps,ioos:station:wmo:42099:1,2017-06-12T08:30:00Z,27.3400,-84.2750,0.0,26.75,2 
Scripps,ioos:station:wmo:42099:1,2017-06-12T09:00:00Z,27.3400,-84.2750,0.0,26.75,2 
Scripps,ioos:station:wmo:42099:1,2017-06-12T10:30:00Z,27.3400,-84.2750,0.0,26.7,2 
Scripps,ioos:station:wmo:42099:1,2017-06-12T11:30:00Z,27.3400,-84.2750,0.0,26.7,2 
Scripps,ioos:station:wmo:42099:1,2017-06-12T12:30:00Z,27.3400,-84.2750,0.0,26.7,2 
Scripps,ioos:station:wmo:42099:1,2017-06-12T13:00:00Z,27.3400,-84.2750,0.0,26.7,2 
Scripps,ioos:station:wmo:42099:1,2017-06-12T14:30:00Z,27.3400,-84.2750,0.0,26.7,2 
Scripps,ioos:station:wmo:42099:1,2017-06-12T15:30:00Z,27.3400,-84.2750,0.0,26.75,2 
Scripps,ioos:station:wmo:42099:1,2017-06-12T16:00:00Z,27.3400,-84.2750,0.0,26.75,2 
Scripps,ioos:station:wmo:42099:1,2017-06-12T17:30:00Z,27.3400,-84.2750,0.0,26.8,2 
Scripps,ioos:station:wmo:42099:1,2017-06-12T18:30:00Z,27.3400,-84.2750,0.0,26.75,2 
Scripps,ioos:station:wmo:42099:1,2017-06-13T15:00:00Z,27.3400,-84.2750,0.0,26.9,2 
Scripps,ioos:station:wmo:42099:1,2017-06-13T16:30:00Z,27.3400,-84.2750,0.0,27.15,2 
Scripps,ioos:station:wmo:42099:1,2017-06-13T17:30:00Z,27.3400,-84.2750,0.0,27.15,2 
Scripps,ioos:station:wmo:42099:1,2017-06-13T19:30:00Z,27.3400,-84.2750,0.0,27.3,2 
Scripps,ioos:station:wmo:42099:1,2017-06-13T20:30:00Z,27.3400,-84.2750,0.0,27.45,2 
Scripps,ioos:station:wmo:42099:1,2017-06-13T21:00:00Z,27.3400,-84.2750,0.0,27.55,2 
Scripps,ioos:station:wmo:42099:1,2017-06-14T00:00:00Z,27.3400,-84.2750,0.0,27.3,2 
Scripps,ioos:station:wmo:42099:1,2017-06-14T01:30:00Z,27.3400,-84.2750,0.0,27.15,2 
Scripps,ioos:station:wmo:42099:1,2017-06-14T03:30:00Z,27.3400,-84.2750,0.0,27.15,2 
Scripps,ioos:station:wmo:42099:1,2017-06-14T04:30:00Z,27.3400,-84.2750,0.0,27.2,2 
Scripps,ioos:station:wmo:42099:1,2017-06-14T05:00:00Z,27.3400,-84.2750,0.0,27.15,2 
Scripps,ioos:station:wmo:42099:1,2017-06-14T06:00:00Z,27.3400,-84.2750,0.0,27.3,2 
Scripps,ioos:station:wmo:42099:1,2017-06-14T07:30:00Z,27.3400,-84.2750,0.0,27.3,2 
Scripps,ioos:station:wmo:42099:1,2017-06-14T08:30:00Z,27.3400,-84.2750,0.0,27.2,2 
Scripps,ioos:station:wmo:42099:1,2017-06-14T09:30:00Z,27.3400,-84.2750,0.0,27.15,2 
Scripps,ioos:station:wmo:42099:1,2017-06-14T10:30:00Z,27.3400,-84.2750,0.0,27.1,2 
Scripps,ioos:station:wmo:42099:1,2017-06-14T11:30:00Z,27.3400,-84.2750,0.0,26.95,2 
Scripps,ioos:station:wmo:42099:1,2017-06-14T12:30:00Z,27.3400,-84.2750,0.0,26.95,2 
Scripps,ioos:station:wmo:42099:1,2017-06-14T13:00:00Z,27.3400,-84.2750,0.0,26.95,2 
Scripps,ioos:station:wmo:42099:1,2017-06-14T14:00:00Z,27.3400,-84.2750,0.0,27.05,2 
Scripps,ioos:station:wmo:42099:1,2017-06-14T15:30:00Z,27.3400,-84.2750,0.0,27.2,2 
Scripps,ioos:station:wmo:42099:1,2017-06-14T16:00:00Z,27.3400,-84.2750,0.0,27.3,2 
Scripps,ioos:station:wmo:42099:1,2017-06-14T17:30:00Z,27.3400,-84.2750,0.0,27.9,2 
Scripps,ioos:station:wmo:42099:1,2017-06-14T18:00:00Z,27.3400,-84.2750,0.0,28.05,2 
Scripps,ioos:station:wmo:42099:1,2017-06-14T19:00:00Z,27.3400,-84.2750,0.0,28.2,2 
Scripps,ioos:station:wmo:42099:1,2017-06-14T20:00:00Z,27.3400,-84.2750,0.0,28.45,2 
Scripps,ioos:station:wmo:42099:1,2017-06-14T21:30:00Z,27.3400,-84.2750,0.0,28.65,2 
Scripps,ioos:station:wmo:42099:1,2017-06-14T22:30:00Z,27.3400,-84.2750,0.0,28.3,2 
Scripps,ioos:station:wmo:42099:1,2017-06-14T23:30:00Z,27.3400,-84.2750,0.0,28.3,2 
Scripps,ioos:station:wmo:42099:1,2017-06-15T01:30:00Z,27.3400,-84.2750,0.0,28.3,2 
Scripps,ioos:station:wmo:42099:1,2017-06-15T04:30:00Z,27.3400,-84.2750,0.0,27.85,2 
Scripps,ioos:station:wmo:42099:1,2017-06-15T05:30:00Z,27.3400,-84.2750,0.0,27.8,2 
Scripps,ioos:station:wmo:42099:1,2017-06-15T06:30:00Z,27.3400,-84.2750,0.0,27.75,2 
Scripps,ioos:station:wmo:42099:1,2017-06-15T07:30:00Z,27.3400,-84.2750,0.0,27.7,2 
Scripps,ioos:station:wmo:42099:1,2017-06-15T08:00:00Z,27.3400,-84.2750,0.0,27.8,2 
Scripps,ioos:station:wmo:42099:1,2017-06-15T09:30:00Z,27.3400,-84.2750,0.0,27.65,2 
Scripps,ioos:station:wmo:42099:1,2017-06-15T10:30:00Z,27.3400,-84.2750,0.0,27.85,2 
Scripps,ioos:station:wmo:42099:1,2017-06-15T11:30:00Z,27.3400,-84.2750,0.0,27.85,2 
Scripps,ioos:station:wmo:42099:1,2017-06-15T12:30:00Z,27.3400,-84.2750,0.0,28.0,2 
Scripps,ioos:station:wmo:42099:1,2017-06-15T13:30:00Z,27.3400,-84.2750,0.0,27.95,2 
Scripps,ioos:station:wmo:42099:1,2017-06-15T14:30:00Z,27.3400,-84.2750,0.0,28.25,2 
Scripps,ioos:station:wmo:42099:1,2017-06-15T15:30:00Z,27.3400,-84.2750,0.0,28.55,2 
Scripps,ioos:station:wmo:42099:1,2017-06-15T16:30:00Z,27.3400,-84.2750,0.0,29.4,2 
Scripps,ioos:station:wmo:42099:1,2017-06-15T17:30:00Z,27.3400,-84.2750,0.0,29.5,2 
Scripps,ioos:station:wmo:42099:1,2017-06-15T18:30:00Z,27.3400,-84.2750,0.0,29.95,2 
Scripps,ioos:station:wmo:42099:1,2017-06-15T19:30:00Z,27.3400,-84.2750,0.0,30.45,2 
Scripps,ioos:station:wmo:42099:1,2017-06-15T20:30:00Z,27.3400,-84.2750,0.0,31.35,2 
Scripps,ioos:station:wmo:42099:1,2017-06-15T21:30:00Z,27.3400,-84.2750,0.0,30.4,2 
Scripps,ioos:station:wmo:42099:1,2017-06-15T22:00:00Z,27.3400,-84.2750,0.0,31.3,2 
Scripps,ioos:station:wmo:42099:1,2017-06-15T23:00:00Z,27.3400,-84.2750,0.0,31.4,2 
Scripps,ioos:station:wmo:42099:1,2017-06-16T02:30:00Z,27.3400,-84.2750,0.0,29.95,2 
Scripps,ioos:station:wmo:42099:1,2017-06-16T03:00:00Z,27.3400,-84.2750,0.0,28.95,2 
Scripps,ioos:station:wmo:42099:1,2017-06-16T04:30:00Z,27.3400,-84.2750,0.0,28.05,2 
Scripps,ioos:station:wmo:42099:1,2017-06-16T05:30:00Z,27.3400,-84.2750,0.0,28.25,2 
Scripps,ioos:station:wmo:42099:1,2017-06-16T06:30:00Z,27.3400,-84.2750,0.0,28.1,2 
Scripps,ioos:station:wmo:42099:1,2017-06-16T07:30:00Z,27.3400,-84.2750,0.0,28.05,2 
Scripps,ioos:station:wmo:42099:1,2017-06-16T08:30:00Z,27.3400,-84.2750,0.0,28.0,2 
Scripps,ioos:station:wmo:42099:1,2017-06-16T09:30:00Z,27.3400,-84.2750,0.0,28.1,2 
Scripps,ioos:station:wmo:42099:1,2017-06-16T10:30:00Z,27.3400,-84.2750,0.0,28.2,2 
Scripps,ioos:station:wmo:42099:1,2017-06-16T11:00:00Z,27.3400,-84.2750,0.0,28.15,2 
Scripps,ioos:station:wmo:42099:1,2017-06-16T12:30:00Z,27.3400,-84.2750,0.0,27.95,2 
Scripps,ioos:station:wmo:42099:1,2017-06-16T13:00:00Z,27.3400,-84.2750,0.0,27.95,2 
Scripps,ioos:station:wmo:42099:1,2017-06-16T17:00:00Z,27.3400,-84.2750,0.0,29.0,2 
Scripps,ioos:station:wmo:42099:1,2017-06-16T18:30:00Z,27.3400,-84.2750,0.0,29.55,2 
Scripps,ioos:station:wmo:42099:1,2017-06-16T19:00:00Z,27.3400,-84.2750,0.0,29.8,2 
Scripps,ioos:station:wmo:42099:1,2017-06-16T21:30:00Z,27.3400,-84.2750,0.0,29.6,2 
Scripps,ioos:station:wmo:42099:1,2017-06-16T22:00:00Z,27.3400,-84.2750,0.0,29.6,2 
Scripps,ioos:station:wmo:42099:1,2017-06-16T23:00:00Z,27.3400,-84.2750,0.0,29.2,2 
Scripps,ioos:station:wmo:42099:1,2017-06-17T17:00:00Z,27.3400,-84.2750,0.0,30.25,2 
Scripps,ioos:station:wmo:42099:1,2017-06-17T18:00:00Z,27.3400,-84.2750,0.0,30.65,2 
Scripps,ioos:station:wmo:42099:1,2017-06-17T20:30:00Z,27.3400,-84.2750,0.0,30.85,2 
Scripps,ioos:station:wmo:42099:1,2017-06-17T22:30:00Z,27.3400,-84.2750,0.0,30.8,2 
Scripps,ioos:station:wmo:42099:1,2017-06-17T23:30:00Z,27.3400,-84.2750,0.0,30.85,2 
Scripps,ioos:station:wmo:42099:1,2017-06-19T18:30:00Z,27.3400,-84.2750,0.0,27.75,2 
Scripps,ioos:station:wmo:42099:1,2017-06-19T19:30:00Z,27.3400,-84.2750,0.0,27.7,2 
Scripps,ioos:station:wmo:42099:1,2017-06-19T20:30:00Z,27.3400,-84.2750,0.0,27.75,2 
Scripps,ioos:station:wmo:42099:1,2017-06-19T21:30:00Z,27.3400,-84.2750,0.0,27.85,2 
Scripps,ioos:station:wmo:42099:1,2017-06-19T22:30:00Z,27.3400,-84.2750,0.0,27.85,2 
Scripps,ioos:station:wmo:42099:1,2017-06-19T23:30:00Z,27.3400,-84.2750,0.0,27.85,2 
Scripps,ioos:station:wmo:42099:1,2017-06-20T01:30:00Z,27.3400,-84.2750,0.0,27.8,2 
Scripps,ioos:station:wmo:42099:1,2017-06-20T04:30:00Z,27.3400,-84.2750,0.0,27.65,2 
Scripps,ioos:station:wmo:42099:1,2017-06-20T06:30:00Z,27.3400,-84.2750,0.0,27.6,2 
Scripps,ioos:station:wmo:42099:1,2017-06-20T07:30:00Z,27.3400,-84.2750,0.0,27.55,2 
Scripps,ioos:station:wmo:42099:1,2017-06-20T08:30:00Z,27.3400,-84.2750,0.0,27.5,2 
Scripps,ioos:station:wmo:42099:1,2017-06-20T09:30:00Z,27.3400,-84.2750,0.0,27.5,2 
Scripps,ioos:station:wmo:42099:1,2017-06-20T10:00:00Z,27.3400,-84.2750,0.0,27.55,2 
Scripps,ioos:station:wmo:42099:1,2017-06-20T11:30:00Z,27.3400,-84.2750,0.0,27.5,2 
Scripps,ioos:station:wmo:42099:1,2017-06-20T12:30:00Z,27.3400,-84.2750,0.0,27.45,2 
Scripps,ioos:station:wmo:42099:1,2017-06-20T13:30:00Z,27.3400,-84.2750,0.0,27.45,2 
Scripps,ioos:station:wmo:42099:1,2017-06-20T14:00:00Z,27.3400,-84.2750,0.0,27.45,2 
Scripps,ioos:station:wmo:42099:1,2017-06-20T16:30:00Z,27.3400,-84.2750,0.0,27.4,2 
Scripps,ioos:station:wmo:42099:1,2017-06-20T17:30:00Z,27.3400,-84.2750,0.0,27.4,2 
Scripps,ioos:station:wmo:42099:1,2017-06-20T18:30:00Z,27.3400,-84.2750,0.0,27.6,2 
Scripps,ioos:station:wmo:42099:1,2017-06-20T19:30:00Z,27.3400,-84.2750,0.0,27.7,2 
Scripps,ioos:station:wmo:42099:1,2017-06-20T20:30:00Z,27.3400,-84.2750,0.0,27.55,2 
Scripps,ioos:station:wmo:42099:1,2017-06-20T21:30:00Z,27.3400,-84.2750,0.0,27.65,2 
Scripps,ioos:station:wmo:42099:1,2017-06-20T22:00:00Z,27.3400,-84.2750,0.0,27.65,2 